Regional Weather Roundup
Issued by NWS

Home | Current Version | Previous Version | Text Only | Print | Product List | Glossary Off
Versions: 1 2 3 4 5 6 7 8 9 10 11 12 13 14 15 16 17 18 19 20 21 22 23 24 25 26 27 28 29 30 31 32 33 34 35 36 37 38 39 40 41 42 43 44 45 46 47 48 49 50

180
ASUS43 KOAX 270110
RWRNE

WEATHER ROUNDUP FOR NEBRASKA
NATIONAL WEATHER SERVICE OMAHA NE
800 PM CDT TUE JUL 26 2016

NOTES: SATELLITE DATA IS BEING USED TO AUGMENT CLOUD COVER ABOVE
       12000 FEET.
       "FAIR" INDICATES FEW OR NO CLOUDS BELOW 12,000 FEET WITH NO
       SIGNIFICANT WEATHER AND/OR OBSTRUCTIONS TO VISIBILITY.

  * THESE STATIONS DO NOT REPORT WEATHER SUCH AS RAIN...SNOW OR FOG.

NEZ001>004-019>022-054>056-270200-
NEBRASKA PANHANDLE

CITY           SKY/WX    TMP DP  RH WIND       PRES   REMARKS
SCOTTSBLUFF    CLOUDY    88  37  16 SW15G22   29.99R
ALLIANCE       CLOUDY    82  64  54 SE8       29.97S
CHADRON        TSTM      83  63  50 N28G47    29.96R
KIMBALL        CLOUDY    90  42  18 W3        30.06S
SIDNEY         CLOUDY    85  52  32 SW23G31   30.03R
$$

NEZ057>060-069>072-079>082-270200-
SOUTHWEST NEBRASKA

CITY           SKY/WX    TMP DP  RH WIND       PRES   REMARKS
NORTH PLATTE   MOSUNNY   83  68  60 SE9       29.97R
IMPERIAL       CLOUDY    87  63  44 S15       29.97S
LEXINGTON      PTCLDY    83  66  56 SE10      30.00R
MCCOOK         MOSUNNY   86  62  44 S13       29.98R
OGALLALA       MOSUNNY   87  62  43 S13       29.95F
$$

NEZ005>010-023>029-035>040-094-270200-
NORTH CENTRAL NEBRASKA

CITY           SKY/WX    TMP DP  RH WIND       PRES   REMARKS
VALENTINE      CLOUDY    86  65  49 S23G30    29.87F
AINSWORTH      MOSUNNY   85  65  51 S15       29.96R
BROKEN BOW     CLEAR     82  68  62 S12       29.99F
O`NEILL        CLEAR     83  64  53 SE12      29.99R
ORD            CLEAR     83  66  56 SE12      29.97S
THEDFORD       MOSUNNY   85  68  56 SE14G20   29.97F
$$

NEZ041-046>049-061>064-073>077-083>087-270200-
SOUTH CENTRAL NEBRASKA

CITY           SKY/WX    TMP DP  RH WIND       PRES   REMARKS
GRAND ISLAND   CLEAR     83  67  58 SE8       30.00S
AURORA         CLEAR     82  68  63 SE6       30.00S
HASTINGS       CLEAR     84  65  52 SE9       30.01R
HEBRON         MOCLDY    83  66  57 SE3       29.99R
HOLDREGE       PTCLDY    82  66  57 SE8       30.00R
KEARNEY *      PTCLDY    82  64  54 SE8       30.01R
YORK           CLEAR     81  66  61 SE9       30.00S
$$

NEZ011>018-030>034-042>045-270200-
NORTHEAST NEBRASKA

CITY           SKY/WX    TMP DP  RH WIND       PRES   REMARKS
NORFOLK        CLEAR     80  65  59 SE10      29.99S
ALBION         CLEAR     80  65  60 SE9       30.00R
BLAIR          CLEAR     80  68  67 E6        30.00S
FREMONT        CLEAR     82  64  55 S6        30.00S
TEKAMAH        CLEAR     82  67  60 SE5       29.99S
WAYNE          CLEAR     79  69  71 SE6       30.01R
$$

NEZ050>053-065>068-078-088>093-270200-
SOUTHEAST NEBRASKA

CITY           SKY/WX    TMP DP  RH WIND       PRES   REMARKS
LINCOLN        PTCLDY    83  63  50 E12       30.00S
OMAHA EPPLEY   PTCLDY    84  66  54 SE9       29.99S
BEATRICE       PTCLDY    83  66  56 SE6       29.99S
FALLS CITY     CLEAR     80  70  71 E5        29.99S
NEBRASKA CITY  PTCLDY    78  67  67 CALM      30.01S
PLATTSMOUTH    CLEAR     79  68  69 E3        30.01S
$$

NEZ044-045-051>053-067-270200-
OMAHA AREA

CITY           SKY/WX    TMP DP  RH WIND       PRES   REMARKS
OMAHA EPPLEY   PTCLDY    84  66  54 SE9       29.99S
BLAIR          CLEAR     80  68  67 E6        30.00S
FREMONT        CLEAR     82  64  55 S6        30.00S
MILLARD        CLEAR     83  67  58 SE8       30.00R
OFFUTT AFB     CLEAR     81  69  66 E7        29.99F
PLATTSMOUTH    CLEAR     79  68  69 E3        30.01S
WAHOO          FAIR      80  68  67 SE6       30.00S
$$




USA.gov is the U.S. government's official web portal to all federal, state and local government web resources and services.